GW4478 Weather Reports


time (UTC)temp
C
wind
direction
speed
KPH
gust
KPH
rain 1hr
cm
rain 24hr
cm
rain mn
cm
humidity
%
barometer
mb
20260504110511 6 162 0.0 0.0 0.00 0.00 0.00 92 1016.7
20260504100503 6 162 0.0 0.0 0.00 0.00 0.00 91 1016.5
20260504082007 6 162 0.0 1.6 0.00 0.00 0.00 90 1016.7
20260504081519 6 162 0.0 0.0 0.00 0.00 0.00 90 1016.7
20260504081013 6 162 0.0 3.2 0.00 0.00 0.00 90 1016.7
20260504080505 6 162 0.0 3.2 0.00 0.00 0.00 90 1016.8
20260504050508 7 162 0.0 3.2 0.00 0.00 0.00 88 1018.0
20260504050011 7 162 0.0 0.0 0.00 0.00 0.00 88 1018.1
20260504045503 7 162 0.0 0.0 0.00 0.00 0.00 88 1018.0
20260504045009 7 162 0.0 3.2 0.00 0.00 0.00 88 1018.0
20260504044518 7 162 0.0 3.2 0.00 0.00 0.00 86 1018.0
20260504044010 7 162 0.0 3.2 0.00 0.00 0.00 86 1018.0
20260504043507 7 162 0.0 3.2 0.00 0.00 0.00 86 1018.0
20260504043020 7 162 0.0 3.2 0.00 0.00 0.00 86 1018.0
20260504042509 7 162 0.0 3.2 0.00 0.00 0.00 85 1018.0
20260504042009 8 162 0.0 3.2 0.00 0.00 0.00 85 1018.0
20260504041525 8 162 0.0 3.2 0.00 0.00 0.00 85 1018.0
20260504041006 8 162 0.0 3.2 0.00 0.00 0.00 84 1017.9
20260504040503 8 162 0.0 3.2 0.00 0.00 0.00 83 1017.9
20260504040027 8 162 0.0 3.2 0.00 0.00 0.00 82 1017.9
20260504035510 8 162 0.0 3.2 0.00 0.00 0.00 82 1017.9
20260504035008 8 162 0.0 3.2 0.00 0.00 0.00 81 1018.0
20260504034514 8 162 1.6 1.6 0.00 0.00 0.00 82 1018.0
20260504034004 9 174 0.0 3.2 0.00 0.00 0.00 82 1018.0
20260504033504 9 174 0.0 3.2 0.00 0.00 0.00 80 1018.1
20260504033022 9 174 0.0 0.0 0.00 0.00 0.00 81 1018.1
20260504032507 9 174 0.0 0.0 0.00 0.00 0.00 83 1018.1
20260504032012 9 174 0.0 3.2 0.00 0.00 0.00 81 1018.2
20260504031524 9 174 0.0 3.2 0.00 0.00 0.00 83 1018.3
20260504031009 8 174 0.0 3.2 0.00 0.00 0.00 85 1018.3
20260504030507 8 174 0.0 3.2 0.00 0.00 0.00 87 1018.3
20260504030025 8 174 0.0 3.2 0.00 0.00 0.00 85 1018.3
20260504025508 8 174 0.0 3.2 0.00 0.00 0.00 85 1018.4
20260504025008 8 174 0.0 3.2 0.00 0.00 0.00 86 1018.5
20260504024513 8 174 0.0 3.2 0.00 0.00 0.00 87 1018.6
20260504024008 8 173 0.0 3.2 0.00 0.00 0.00 87 1018.4
20260504023505 8 173 0.0 3.2 0.00 0.00 0.00 86 1018.5
20260504023016 8 173 0.0 3.2 0.00 0.00 0.00 86 1018.5
20260504022506 9 173 0.0 0.0 0.00 0.00 0.00 85 1018.4
20260504022007 9 173 0.0 0.0 0.00 0.00 0.00 85 1018.4
20260504021520 9 173 0.0 3.2 0.00 0.00 0.00 85 1018.4
20260504021008 9 173 0.0 3.2 0.00 0.00 0.00 84 1018.3
20260504020506 10 173 0.0 3.2 0.00 0.00 0.00 83 1018.3
20260504020023 10 173 0.0 3.2 0.00 0.00 0.00 83 1018.2
20260504015511 10 173 0.0 3.2 0.00 0.00 0.00 83 1018.2
20260504015012 10 173 0.0 3.2 0.00 0.00 0.00 81 1018.1
20260504014527 10 173 0.0 0.0 0.00 0.00 0.00 80 1018.1
20260504014008 10 173 0.0 0.0 0.00 0.00 0.00 80 1017.9
20260504013503 10 173 0.0 0.0 0.00 0.00 0.00 79 1017.8
20260504013014 11 173 0.0 0.0 0.00 0.00 0.00 78 1017.8
20260504012507 11 173 0.0 0.0 0.00 0.00 0.00 77 1017.7
20260504012008 11 173 0.0 0.0 0.00 0.00 0.00 77 1017.7
20260504011517 11 173 0.0 0.0 0.00 0.00 0.00 76 1017.8
20260504011007 11 173 0.0 3.2 0.00 0.00 0.00 76 1017.8
20260504010507 12 173 0.0 3.2 0.00 0.00 0.00 74 1017.6
20260504010022 12 173 0.0 3.2 0.00 0.00 0.00 74 1017.5
20260504005508 12 173 0.0 3.2 0.00 0.00 0.00 73 1017.5
20260504005011 12 173 0.0 3.2 0.00 0.00 0.00 68 1017.5
20260504004539 13 173 0.0 3.2 0.00 0.00 0.00 66 1017.5
20260504004009 13 173 1.6 1.6 0.00 0.00 0.00 65 1017.4
20260504003514 13 200 0.0 3.2 0.00 0.00 0.00 67 1017.4
20260504003027 14 200 0.0 3.2 0.00 0.00 0.00 66 1017.4
20260504002510 15 200 0.0 3.2 0.00 0.00 0.00 65 1017.5
20260504002006 16 200 1.6 3.2 0.00 0.00 0.00 56 1017.5
20260504001516 16 212 1.6 4.8 0.00 0.00 0.00 49 1017.6
20260504001007 16 214 1.6 4.8 0.00 0.00 0.00 48 1017.6
20260504000505 16 229 1.6 4.8 0.00 0.00 0.00 50 1017.6
20260504000024 17 236 1.6 6.4 0.00 0.00 0.00 47 1017.6
20260503235506 17 255 3.2 6.4 0.00 0.00 0.00 47 1017.7
20260503235009 17 227 1.6 4.8 0.00 0.00 0.00 47 1017.8
20260503234524 17 239 3.2 6.4 0.00 0.00 0.00 45 1017.9
20260503234010 17 238 3.2 11.3 0.00 0.00 0.00 46 1017.9
20260503233508 17 229 3.2 8.0 0.00 0.00 0.00 46 1018.0
20260503233027 17 234 6.4 8.0 0.00 0.00 0.00 46 1017.9
20260503232509 17 234 4.8 8.0 0.00 0.00 0.00 46 1017.9
20260503232011 17 261 4.8 6.4 0.00 0.00 0.00 46 1018.1
20260503231528 17 240 3.2 11.3 0.00 0.00 0.00 45 1018.0
20260503231007 17 232 3.2 11.3 0.00 0.00 0.00 44 1018.0
20260503230508 17 256 6.4 11.3 0.00 0.00 0.00 44 1018.1
20260503230020 17 257 1.6 12.9 0.00 0.00 0.00 44 1018.1
20260503225507 18 317 6.4 17.7 0.00 0.00 0.00 46 1018.2
20260503225012 18 260 11.3 17.7 0.00 0.00 0.00 46 1018.2
20260503224524 18 207 1.6 12.9 0.00 0.00 0.00 45 1018.2
20260503224011 18 253 6.4 12.9 0.00 0.00 0.00 43 1018.2
20260503223507 18 247 4.8 14.5 0.00 0.00 0.00 44 1018.2
20260503223026 18 236 8.0 14.5 0.00 0.00 0.00 45 1018.4
20260503222509 18 250 4.8 12.9 0.00 0.00 0.00 45 1018.3
20260503222008 18 248 6.4 12.9 0.00 0.00 0.00 43 1018.3
20260503221528 18 245 6.4 16.1 0.00 0.00 0.00 43 1018.5
20260503221009 18 273 6.4 16.1 0.00 0.00 0.00 45 1018.4
20260503220509 18 292 6.4 14.5 0.00 0.00 0.00 45 1018.5
20260503220017 18 225 3.2 14.5 0.00 0.00 0.00 45 1018.4
20260503215506 18 257 8.0 14.5 0.00 0.00 0.00 46 1018.4
20260503215005 18 202 8.0 12.9 0.00 0.00 0.00 45 1018.4
20260503214521 18 255 3.2 16.1 0.00 0.00 0.00 45 1018.5
20260503214003 18 242 8.0 22.5 0.00 0.00 0.00 43 1018.6
20260503213511 18 245 8.0 22.5 0.00 0.00 0.00 45 1018.7
20260503213008 18 350 4.8 12.9 0.00 0.00 0.00 48 1018.8
20260503212503 18 238 6.4 14.5 0.00 0.00 0.00 44 1019.0
20260503212005 18 246 6.4 14.5 0.00 0.00 0.00 45 1019.1
20260503211513 18 238 6.4 17.7 0.00 0.00 0.00 47 1019.1
20260503211002 18 288 8.0 17.7 0.00 0.00 0.00 47 1019.1
20260503210510 18 322 4.8 12.9 0.00 0.00 0.00 45 1019.1
20260503210016 18 256 4.8 17.7 0.00 0.00 0.00 44 1019.1
20260503205512 18 258 9.7 17.7 0.00 0.00 0.00 46 1019.3
20260503205006 18 277 11.3 17.7 0.00 0.00 0.00 46 1019.2
20260503204526 18 261 4.8 16.1 0.00 0.00 0.00 42 1019.4
20260503204012 18 217 8.0 16.1 0.00 0.00 0.00 42 1019.4
20260503203509 18 296 9.7 16.1 0.00 0.00 0.00 45 1019.5
20260503203024 18 313 6.4 16.1 0.00 0.00 0.00 44 1019.5
20260503202509 18 348 9.7 16.1 0.00 0.00 0.00 43 1019.7
20260503202010 18 259 6.4 12.9 0.00 0.00 0.00 45 1019.7
20260503201510 18 296 3.2 16.1 0.00 0.00 0.00 44 1019.8
20260503201009 18 252 9.7 17.7 0.00 0.00 0.00 44 1019.8
20260503200503 18 269 3.2 19.3 0.00 0.00 0.00 44 1019.9
20260503200014 18 226 9.7 19.3 0.00 0.00 0.00 47 1020.0
20260503195506 18 266 6.4 17.7 0.00 0.00 0.00 42 1020.2
20260503195006 18 269 3.2 17.7 0.00 0.00 0.00 43 1020.3
20260503194531 17 340 4.8 19.3 0.00 0.00 0.00 44 1020.5
20260503194010 18 243 6.4 19.3 0.00 0.00 0.00 44 1020.5
20260503193510 17 205 9.7 16.1 0.00 0.00 0.00 45 1020.5
20260503193037 17 109 4.8 16.1 0.00 0.00 0.00 50 1020.7
20260503192509 18 219 11.3 16.1 0.00 0.00 0.00 44 1020.8
20260503192010 18 299 3.2 14.5 0.00 0.00 0.00 47 1020.9
20260503191507 17 239 8.0 17.7 0.00 0.00 0.00 46 1020.9
20260503191004 17 265 3.2 17.7 0.00 0.00 0.00 46 1021.0
20260503190510 17 313 8.0 19.3 0.00 0.00 0.00 42 1021.1
20260503190031 17 298 12.9 19.3 0.00 0.00 0.00 45 1021.1
20260503185503 17 329 4.8 14.5 0.00 0.00 0.00 43 1021.1
20260503185012 17 239 4.8 14.5 0.00 0.00 0.00 43 1021.2
20260503184523 17 300 8.0 14.5 0.00 0.00 0.00 46 1021.2
20260503184011 17 301 4.8 16.1 0.00 0.00 0.00 46 1021.3
20260503183507 17 263 8.0 19.3 0.00 0.00 0.00 44 1021.3
20260503183026 17 259 8.0 19.3 0.00 0.00 0.00 46 1021.4
20260503182507 17 339 8.0 19.3 0.00 0.00 0.00 41 1021.5
20260503182010 17 263 3.2 11.3 0.00 0.00 0.00 49 1021.4
20260503181524 17 298 3.2 12.9 0.00 0.00 0.00 46 1021.5
20260503181008 16 215 6.4 12.9 0.00 0.00 0.00 45 1021.5
20260503180504 17 199 8.0 9.7 0.00 0.00 0.00 48 1021.5
20260503180016 16 337 3.2 11.3 0.00 0.00 0.00 48 1021.5
20260503175504 16 337 1.6 19.3 0.00 0.00 0.00 48 1021.6
20260503175003 16 167 11.3 19.3 0.00 0.00 0.00 48 1021.6
20260503174515 16 163 8.0 17.7 0.00 0.00 0.00 50 1021.8
20260503174004 16 211 12.9 17.7 0.00 0.00 0.00 47 1021.8
20260503173506 15 284 1.6 6.4 0.00 0.00 0.00 47 1022.0
20260503173024 15 263 1.6 14.5 0.00 0.00 0.00 48 1022.1
20260503172508 16 253 9.7 14.5 0.00 0.00 0.00 51 1022.2
20260503172007 16 211 3.2 12.9 0.00 0.00 0.00 47 1022.3
20260503171526 15 196 4.8 16.1 0.00 0.00 0.00 51 1022.4
20260503171010 15 252 8.0 16.1 0.00 0.00 0.00 51 1022.4
20260503170508 16 238 6.4 16.1 0.00 0.00 0.00 53 1022.4
20260503151009 13 38 3.2 12.9 0.00 0.00 0.00 56 1023.0
20260503150509 13 13 6.4 11.3 0.00 0.00 0.00 58 1022.9
20260503131009 9 28 3.2 4.8 0.00 0.00 0.00 84 1022.6
20260503130509 8 38 1.6 6.4 0.00 0.00 0.00 83 1022.4